Location: Ripley
(48.3812°N, 115.4473°W)
Time: 17:54:33
(UTC+00:00)

CAS-6 - Pass Details

Date: 05 July 2022
Orbit: 613 x 634 km, 97.9° (Epoch: 19 August)

Event Time Altitude Azimuth Distance (km) Brightness Sun altitude
Exits shadow 06:41:10 19° 217° (SW) 1,515 ? -17.4°
Maximum altitude 06:43:29 29° 265° (W) 1,141 ? -17.5°
Drops below altitude 10° 06:47:18 10° 326° (NW) 1,999 ? -17.6°
Sets 06:49:44 0° 338° (NNW) 2,907 ? -17.7°
